Muskegon, MI

1:50 AM EST on January 19, 2018 (GMT -0500)
Muskegon County

Weather History for KMKG - November, 2013

Change the Weather History Date:

Wednesday, November 27, 2013

  Actual Average Record
Temperature  
Mean Temperature 26 °F 36 °F  
Max Temperature 29 °F 41 °F 62 °F (1990)
Min Temperature 22 °F 31 °F 5 °F (1977)
Degree Days  
Heating Degree Days 39 29  
Month to date heating degree days 653 655  
Since 1 July heating degree days 1161 1278  
Cooling Degree Days 0 0  
Month to date cooling degree days 0 0  
Year to date cooling degree days 626 566  
Moisture  
Dew Point 15 °F    
Average Humidity 62    
Maximum Humidity 74    
Minimum Humidity 50    
Precipitation  
Precipitation T in 0.10 in 1.96 in (1966)
Month to date precipitation 3.19 3.04  
Year to date precipitation 40.86 30.62  
Snow  
Snow T in 0.40 in 6.40 in (1995)
Month to date snowfall 2.4 4.8  
Since 1 July snowfall 2.4 5.0  
Since 1 September snowfall 2.4 5.0  
Snow Depth 2.00 in    
Sea Level Pressure  
Sea Level Pressure 30.13 in    
Wind  
Wind Speed 9 mph (NNW)    
Max Wind Speed 21 mph    
Max Gust Speed 28 mph    
Visibility 9 miles    
Events Snow    
T = Trace of Precipitation, MM = Missing Value Source: NWS Daily Summary

Daily Weather History Graph

Daily Weather History Graph

Search for Another Location

Airport or City:

Trip Planner

Search our weather history database for the weather conditions in past years. The results will help you decide how hot, cold, wet, or windy it might be!

Date:

Astronomy

Nov. 27, 2013 Rise Set
Actual Time 7:52 AM EST 5:12 PM EST
Civil Twilight 7:21 AM EST 5:43 PM EST
Nautical Twilight 6:45 AM EST 6:19 PM EST
Astronomical Twilight 6:11 AM EST 6:53 PM EST
Moon 1:45 AM EST (11/27) 1:57 PM EST (11/27)
Length of Visible Light 10h 22m
Length of Day
9h 19m
Waning Crescent, 32% of the Moon is Illuminated
Nov 27
Waning Crescent
Dec 2
New
Dec 9
First Quarter
Dec 17
Full
Dec 25
Last Quarter

Hourly Weather History & Observations

Time (EST) Temp. Windchill Dew Point Humidity Pressure Visibility Wind Dir Wind Speed Gust Speed Precip Events Conditions
12:55 AM 24.1 °F 12.0 °F 12.9 °F 62% 30.09 in 10.0 mi North 13.8 mph 19.6 mph N/A   Overcast
1:55 AM 23.0 °F 12.4 °F 12.0 °F 63% 30.10 in 10.0 mi North 10.4 mph - N/A   Overcast
2:55 AM 23.0 °F 12.4 °F 12.9 °F 65% 30.09 in 9.0 mi North 10.4 mph - 0.00 in Snow Light Snow
3:55 AM 23.0 °F 13.1 °F 14.0 °F 68% 30.09 in 10.0 mi North 9.2 mph - 0.00 in   Overcast
4:55 AM 23.0 °F 13.9 °F 16.0 °F 74% 30.09 in 9.0 mi NNW 8.1 mph - 0.00 in   Overcast
5:55 AM 23.0 °F 15.8 °F 15.1 °F 72% 30.09 in 10.0 mi North 5.8 mph - N/A   Overcast
6:55 AM 24.1 °F 15.2 °F 15.1 °F 69% 30.10 in 10.0 mi NNW 8.1 mph - N/A   Overcast
7:55 AM 23.0 °F 13.9 °F 15.1 °F 72% 30.11 in 10.0 mi NNW 8.1 mph - N/A   Mostly Cloudy
8:28 AM 24.8 °F 16.9 °F 17.6 °F 74% 30.09 in 1.0 mi North 6.9 mph - 0.00 in Snow Light Snow
8:40 AM 24.8 °F 15.3 °F 17.6 °F 74% 30.09 in 0.8 mi NNW 9.2 mph - 0.00 in Snow Light Snow
8:48 AM 24.8 °F 15.3 °F 19.4 °F 80% 30.09 in 1.0 mi North 9.2 mph - 0.00 in Snow Light Snow
8:55 AM 24.1 °F 15.2 °F 19.0 °F 81% 30.12 in 4.0 mi North 8.1 mph - 0.00 in Snow Light Snow
9:12 AM 24.8 °F 17.9 °F 19.4 °F 80% 30.09 in 10.0 mi NNW 5.8 mph - 0.01 in   Mostly Cloudy
9:55 AM 26.1 °F 16.2 °F 17.1 °F 69% 30.13 in 10.0 mi North 10.4 mph 20.7 mph 0.01 in   Mostly Cloudy
10:55 AM 28.0 °F 17.0 °F 14.0 °F 56% 30.13 in 10.0 mi North 13.8 mph - N/A   Scattered Clouds
11:55 AM 28.9 °F 19.2 °F 12.9 °F 51% 30.12 in 10.0 mi North 11.5 mph - N/A   Mostly Cloudy
12:55 PM 28.0 °F 16.1 °F 14.0 °F 56% 30.11 in 10.0 mi NNW 16.1 mph 25.3 mph 0.00 in Snow Light Snow
1:55 PM 28.0 °F 16.5 °F 15.1 °F 58% 30.11 in 10.0 mi NNW 15.0 mph 27.6 mph 0.00 in   Mostly Cloudy
2:55 PM 28.0 °F 16.5 °F 16.0 °F 61% 30.12 in 10.0 mi NNW 15.0 mph - N/A   Mostly Cloudy
3:55 PM 27.0 °F 16.1 °F 15.1 °F 61% 30.13 in 10.0 mi North 12.7 mph - N/A   Mostly Cloudy
4:55 PM 25.0 °F 14.8 °F 15.1 °F 66% 30.16 in 10.0 mi NNW 10.4 mph - N/A   Mostly Cloudy
5:55 PM 24.1 °F 16.0 °F 15.1 °F 69% 30.19 in 10.0 mi NNW 6.9 mph - N/A   Mostly Cloudy
6:55 PM 25.0 °F 18.1 °F 14.0 °F 63% 30.20 in 10.0 mi North 5.8 mph - N/A   Overcast
7:55 PM 25.0 °F 18.1 °F 14.0 °F 63% 30.22 in 10.0 mi North 5.8 mph - N/A   Overcast
8:55 PM 25.0 °F 20.7 °F 14.0 °F 63% 30.21 in 10.0 mi North 3.5 mph - N/A   Overcast
9:55 PM 25.0 °F - 15.1 °F 66% 30.22 in 10.0 mi Calm Calm - N/A   Overcast
10:55 PM 25.0 °F - 15.1 °F 66% 30.22 in 10.0 mi Calm Calm - N/A   Overcast
11:55 PM 24.1 °F - 16.0 °F 71% 30.24 in 10.0 mi Calm Calm - N/A   Overcast